Regional Weather Roundup
Issued by NWS

Home | Current Version | Previous Version | Graphics & Text | Print | Product List | Glossary On
Versions: 1 2 3 4 5 6 7 8 9 10 11 12 13 14 15 16 17 18 19 20 21 22 23 24 25 26 27 28 29 30 31 32 33 34 35 36 37 38 39 40 41 42 43 44 45 46 47 48 49 50
000
ASUS43 KBIS 151610
RWRND

NORTH DAKOTA REGIONAL WEATHER ROUNDUP
NATIONAL WEATHER SERVICE BISMARCK ND
1000 AM CST FRI DEC 15 2017

NOTE: "FAIR" INDICATES FEW OR NO CLOUDS BELOW 12,000 FEET WITH NO
SIGNIFICANT WEATHER AND/OR OBSTRUCTIONS TO VISIBILITY.


NDZ001>003-009>011-017-151700-
NORTHWEST NORTH DAKOTA

CITY           SKY/WX    TMP DP  RH WIND       PRES   REMARKS
WILLISTON      CLOUDY    32  25  75 SW6       29.65F
MINOT          CLOUDY    33  25  72 S9        29.64F
MINOT AFB      CLOUDY    31  25  76 S7        29.64F
$$

NDZ018>021-031>035-040>046-151700-
SOUTHWEST NORTH DAKOTA

CITY           SKY/WX    TMP DP  RH WIND       PRES   REMARKS
BISMARCK       CLOUDY    31  24  75 S3        29.72F
DICKINSON      MOSUNNY   35  23  61 W17       29.65F
GARRISON         N/A     31  24  75 SW10      29.66F
HETTINGER ARPT CLOUDY    34  23  64 W14       29.73F
$$

NDZ004>008-012>016-024-026-027-054-151700-
NORTHEAST NORTH DAKOTA

CITY           SKY/WX    TMP DP  RH WIND       PRES   REMARKS
GRAND FORKS    CLOUDY    18  16  92 S9        29.83S WCI   7
GRND FRKS AFB  FLURRIES  18  15  85 S9        29.81F WCI   7
DEVILS LAKE    CLOUDY    23  21  92 SE9       29.72F WCI  13
$$

NDZ022-023-025-028>030-036>039-047>053-151700-
SOUTHEAST NORTH DAKOTA

CITY           SKY/WX    TMP DP  RH WIND       PRES   REMARKS
FARGO          FLURRIES  21  17  84 S7        29.85R WCI  12
JAMESTOWN      CLOUDY    25  24  96 S8        29.75F WCI  16
$$




USA.gov is the U.S. government's official web portal to all federal, state and local government web resources and services.